View from above orbital plane
|
View from above satellite
|
Ground track
|
The orbit data is extracted from the following two-line orbital elements,
1 43131U 18004W 21016.79998161 .00001932 00000-0 77139-4 0 9991
2 43131 97.4277 93.6876 0009271 28.7504 331.4244 15.26351618167625
Epoch (UTC): | 16 January 2021 19:11:58 |
Eccentricity: | 0.0009271 |
inclination: | 97.4277° |
perigee height: | 480 km |
apogee height: | 493 km |
right ascension of ascending node: | 93.6876° |
argument of perigee: | 28.7504° |
revolutions per day: | 15.26351618 |
mean anomaly at epoch: | 331.4244° |
orbit number at epoch: | 16762 |
The dashed part of the orbit path shows where the satellite is in the earth's shadow,
|
|